Location: Ellen Observatory
(29.0040°N, 81.3000°W)
Time: 10:33:24
(UTC-04:00)

ISS - Visible Passes

Search period start: 18 August 2018 00:00
Search period end: 28 August 2018 00:00
Orbit: 402 x 409 km, 51.6° (Epoch: 18 August)

Date Brightness Start Highest point End Pass type
(mag) Time Alt. Az. Time Alt. Az. Time Alt. Az.
24 Aug -1.0 06:29:01 10° SSE 06:30:51 14° SE 06:32:41 10° E visible
26 Aug -2.8 06:19:55 10° SSW 06:23:02 44° SE 06:26:10 10° ENE visible
27 Aug -1.5 05:29:46 15° SSE 05:31:06 19° SE 05:33:31 10° E visible
